Jacksonville, IL

5:21 PM CDT on October 15, 2019 (GMT -0500)
Jacksonville Municipal

Weather History for KIJX - August, 2019

Change the Weather History Date:

Wednesday, August 7, 2019

  Actual Average (WUND) Record (WUND)
Temperature  
Mean Temperature 72 °F -  
Max Temperature 83 °F - - (-1)
Min Temperature 61 °F - - (-1)
Cooling Degree Days 7    
Growing Degree Days 22 (Base 50)    
Moisture  
Dew Point 65 °F    
Average Humidity 78    
Maximum Humidity 98    
Minimum Humidity 55    
Precipitation  
Precipitation 0.00 in - - ()
Sea Level Pressure  
Sea Level Pressure 29.88 in    
Wind  
Wind Speed 3 mph (WSW)    
Max Wind Speed 10 mph    
Max Gust Speed 16 mph    
Visibility 9 miles    
Events      
Averages and records for this station are not official NWS values.
T = Trace of Precipitation, MM = Missing Value Source: NWS Daily Summary

Daily Weather History Graph

Daily Weather History Graph

Search for Another Location

Airport or City:

Astronomy

Aug. 07, 2019 Rise Set
Actual Time 6:05 AM CDT 8:07 PM CDT
Civil Twilight 5:35 AM CDT 8:37 PM CDT
Nautical Twilight 4:59 AM CDT 9:13 PM CDT
Astronomical Twilight 4:20 AM CDT 9:52 PM CDT
Moon 1:36 PM CDT (8/7) No Moon Set
Length of Visible Light 15h 01m
Length of Day
14h 02m
Waxing Crescent, 50% of the Moon is Illuminated
Aug 7
Waxing Crescent
Aug 7
First Quarter
Aug 15
Full
Aug 23
Last Quarter
Aug 30
New

Hourly Weather History & Observations

Time (CDT) Temp. Heat Index Dew Point Humidity Pressure Visibility Wind Dir Wind Speed Gust Speed Precip Events Conditions
12:15 AM 66.7 °F - 64.9 °F 94% 29.88 in 10.0 mi West 6.9 mph - N/A   Clear
12:35 AM 66.7 °F - 64.9 °F 94% 29.88 in 10.0 mi WNW 3.5 mph - N/A   Clear
12:55 AM 65.8 °F - 64.4 °F 95% 29.88 in 10.0 mi West 5.8 mph - N/A   Clear
1:15 AM 65.8 °F - 64.4 °F 95% 29.88 in 10.0 mi WNW 4.6 mph - N/A   Clear
1:35 AM 65.8 °F - 64.4 °F 95% 29.88 in 10.0 mi WNW 5.8 mph - N/A   Clear
1:55 AM 65.7 °F - 64.4 °F 96% 29.88 in 10.0 mi WNW 3.5 mph - N/A   Clear
2:15 AM 64.2 °F - 63.0 °F 96% 29.87 in 10.0 mi Calm Calm - N/A   Clear
2:35 AM 64.6 °F - 63.3 °F 96% 29.87 in 10.0 mi Calm Calm - N/A   Clear
2:55 AM 63.3 °F - 62.2 °F 96% 29.88 in 7.0 mi West 3.5 mph - N/A   Clear
3:15 AM 64.6 °F - 63.9 °F 98% 29.88 in 7.0 mi West 5.8 mph - N/A   Clear
3:35 AM 63.5 °F - 62.6 °F 97% 29.88 in 7.0 mi Calm Calm - N/A   Clear
3:55 AM 63.3 °F - 62.4 °F 97% 29.88 in 7.0 mi Calm Calm - N/A   Clear
4:15 AM 63.0 °F - 62.4 °F 98% 29.88 in 7.0 mi WNW 3.5 mph - N/A   Clear
4:35 AM 62.2 °F - 61.3 °F 97% 29.88 in 7.0 mi Calm Calm - N/A   Clear
4:55 AM 62.1 °F - 61.3 °F 97% 29.87 in 7.0 mi Calm Calm - N/A   Clear
5:15 AM 61.7 °F - 60.8 °F 97% 29.88 in 4.0 mi Calm Calm - N/A   Clear
5:35 AM 61.7 °F - 60.8 °F 97% 29.89 in 4.0 mi Calm Calm - N/A   Clear
5:55 AM 62.1 °F - 61.2 °F 97% 29.89 in 3.0 mi Calm Calm - N/A   Clear
6:15 AM 61.9 °F - 61.3 °F 98% 29.89 in 2.0 mi Calm Calm - N/A   Clear
6:35 AM 61.2 °F - 60.4 °F 97% 29.90 in 5.0 mi Calm Calm - N/A   Clear
6:55 AM 63.7 °F - 62.8 °F 97% 29.90 in 5.0 mi SW 3.5 mph - N/A   Clear
7:15 AM 65.5 °F - 64.6 °F 97% 29.90 in 7.0 mi Calm Calm - N/A   Clear
7:35 AM 67.1 °F - 65.5 °F 95% 29.90 in 10.0 mi Calm Calm - N/A   Clear
7:55 AM 69.3 °F - 66.4 °F 91% 29.90 in 10.0 mi Calm Calm - N/A   Clear
8:15 AM 71.8 °F - 65.5 °F 80% 29.90 in 10.0 mi Calm Calm - N/A   Clear
8:35 AM 72.5 °F - 66.9 °F 83% 29.89 in 10.0 mi Calm Calm - N/A   Clear
8:55 AM 74.3 °F - 67.1 °F 78% 29.90 in 10.0 mi Calm Calm - N/A   Clear
9:15 AM 76.6 °F - 67.3 °F 73% 29.90 in 10.0 mi Calm Calm - N/A   Clear
9:35 AM 77.0 °F - 65.1 °F 67% 29.91 in 10.0 mi Calm Calm - N/A   Clear
9:55 AM 78.4 °F - 64.2 °F 62% 29.91 in 10.0 mi Calm Calm - N/A   Clear
10:15 AM 79.2 °F - 66.0 °F 64% 29.92 in 10.0 mi NW 3.5 mph - N/A   Clear
10:35 AM 79.7 °F - 67.1 °F 65% 29.92 in 10.0 mi SW 3.5 mph - N/A   Clear
10:55 AM 80.4 °F 82.8 °F 67.3 °F 64% 29.93 in 10.0 mi WNW 4.6 mph - N/A   Clear
11:15 AM 80.6 °F 82.8 °F 66.4 °F 62% 29.92 in 10.0 mi Calm Calm - N/A   Clear
11:35 AM 81.0 °F 83.4 °F 67.1 °F 63% 29.90 in 10.0 mi West 3.5 mph - N/A   Scattered Clouds
11:55 AM 81.1 °F 83.2 °F 65.8 °F 60% 29.90 in 10.0 mi South 3.5 mph - N/A   Mostly Cloudy
12:15 PM 81.9 °F 83.5 °F 64.8 °F 56% 29.90 in 10.0 mi SW 6.9 mph - N/A   Scattered Clouds
12:35 PM 81.3 °F 83.3 °F 65.8 °F 59% 29.91 in 10.0 mi SW 4.6 mph - N/A   Scattered Clouds
12:55 PM 81.7 °F 83.8 °F 66.2 °F 59% 29.90 in 10.0 mi WSW 4.6 mph - N/A   Clear
1:15 PM 81.9 °F 84.4 °F 67.1 °F 61% 29.91 in 10.0 mi WSW 6.9 mph - N/A   Scattered Clouds
1:35 PM 82.0 °F 83.9 °F 65.7 °F 57% 29.91 in 10.0 mi WSW 6.9 mph - N/A   Scattered Clouds
1:55 PM 81.7 °F 83.6 °F 65.7 °F 58% 29.91 in 10.0 mi SW 5.8 mph - N/A   Scattered Clouds
2:15 PM 82.4 °F 84.1 °F 64.9 °F 55% 29.90 in 10.0 mi WSW 5.8 mph - N/A   Clear
2:35 PM 82.4 °F 84.8 °F 66.7 °F 59% 29.90 in 10.0 mi SW 5.8 mph - N/A   Scattered Clouds
2:55 PM 82.8 °F 85.1 °F 66.7 °F 58% 29.89 in 10.0 mi WSW 10.4 mph 16.1 mph N/A   Mostly Cloudy
3:15 PM 83.3 °F 85.7 °F 66.4 °F 57% 29.89 in 10.0 mi WSW 9.2 mph - N/A   Scattered Clouds
3:35 PM 82.8 °F 84.7 °F 65.8 °F 56% 29.88 in 10.0 mi WSW 10.4 mph - N/A   Scattered Clouds
3:55 PM 83.1 °F 85.2 °F 66.0 °F 56% 29.88 in 10.0 mi SW 5.8 mph - N/A   Scattered Clouds
4:15 PM 83.1 °F 85.7 °F 67.1 °F 58% 29.87 in 10.0 mi SW 8.1 mph - N/A   Scattered Clouds
4:35 PM 83.1 °F 85.7 °F 67.1 °F 58% 29.86 in 10.0 mi WSW 5.8 mph - N/A   Scattered Clouds
4:55 PM 82.9 °F 85.4 °F 66.6 °F 58% 29.86 in 10.0 mi WSW 4.6 mph - N/A   Scattered Clouds
5:15 PM 82.6 °F 85.1 °F 66.9 °F 59% 29.85 in 10.0 mi SSW 6.9 mph - N/A   Scattered Clouds
5:35 PM 82.6 °F 84.9 °F 66.6 °F 58% 29.85 in 10.0 mi SW 8.1 mph - N/A   Mostly Cloudy
5:55 PM 82.6 °F 85.1 °F 66.7 °F 59% 29.85 in 10.0 mi WSW 6.9 mph - N/A   Scattered Clouds
6:15 PM 82.4 °F 84.8 °F 66.7 °F 59% 29.84 in 10.0 mi WSW 4.6 mph - N/A   Clear
6:35 PM 81.9 °F 84.2 °F 66.6 °F 60% 29.83 in 10.0 mi WSW 3.5 mph - N/A   Clear
6:55 PM 81.1 °F 83.7 °F 67.5 °F 63% 29.84 in 10.0 mi Calm Calm - N/A   Clear
7:15 PM 80.1 °F 82.6 °F 67.8 °F 66% 29.84 in 10.0 mi Calm Calm - N/A   Clear
7:35 PM 78.4 °F - 68.2 °F 71% 29.84 in 10.0 mi Calm Calm - N/A   Clear
7:55 PM 76.5 °F - 67.8 °F 75% 29.84 in 10.0 mi Calm Calm - N/A   Clear
8:15 PM 75.4 °F - 67.6 °F 77% 29.85 in 10.0 mi Calm Calm - N/A   Clear
8:35 PM 74.7 °F - 67.3 °F 78% 29.85 in 10.0 mi Calm Calm - N/A   Clear
8:55 PM 73.4 °F - 67.1 °F 81% 29.85 in 10.0 mi Calm Calm - N/A   Clear
9:15 PM 72.0 °F - 67.1 °F 85% 29.86 in 10.0 mi Calm Calm - N/A   Clear
9:35 PM 70.3 °F - 66.6 °F 88% 29.87 in 10.0 mi Calm Calm - N/A   Clear
9:55 PM 69.8 °F - 66.6 °F 89% 29.88 in 10.0 mi Calm Calm - N/A   Clear
10:15 PM 69.8 °F - 66.2 °F 88% 29.88 in 10.0 mi Calm Calm - N/A   Clear
10:35 PM 69.4 °F - 66.2 °F 89% 29.88 in 10.0 mi SSW 4.6 mph - N/A   Clear
10:55 PM 68.9 °F - 66.2 °F 91% 29.88 in 10.0 mi SSW 3.5 mph - N/A   Clear
11:15 PM 68.9 °F - 65.8 °F 90% 29.89 in 10.0 mi Calm Calm - N/A   Clear
11:35 PM 68.4 °F - 65.7 °F 91% 29.89 in 10.0 mi Calm Calm - N/A   Clear
11:55 PM 68.2 °F - 65.5 °F 91% 29.89 in 10.0 mi Calm Calm - N/A   Clear